[[{"header":{"parameterUnit":"m.s-1","parameterCategory":1,"la1":30.2991,"la2":30.254,"lo1":-89.0895,"lo2":-89.0444,"dy":0.0017,"dx":0.0017,"nx":28,"ny":28,"refTime":"2024-08-04T21:00:00:Z","depth":0,"parameterNumber":2,"parameterNumberName":"U-component_of_WINDS"},"data":[0,0,0,0,0,0,0,0,0,0,0,0,0,0,0,0,0,0,0,0,0,0,0,0,0,0,0,0,0,0,0,0,0,0,0,0,0,0,0,0,0,0,0,0,0,0,0,0,0,0,0,0,0,0,0,0,0,0,-2.0505,-2.0505,0,-2.0468,-2.0468,-2.0467,-2.0403,-2.0402,-2.0401,-2.0399,-2.0363,-2.0363,-2.0364,0,0,0,0,0,0,0,0,0,0,0,0,0,-2.0521,-2.0521,-2.0505,-2.0505,-2.0504,-2.0468,-2.0468,-2.0467,-2.0403,-2.0402,-2.04,-2.0399,-2.0363,-2.0363,-2.0364,0,0,0,0,0,0,0,0,0,0,0,0,0,-2.0502,-2.0521,-2.0505,-2.0468,-2.0464,-2.0468,-2.0468,-2.0467,-2.0404,-2.0402,-2.04,-2.0398,-2.0363,-2.0363,-2.0364,-2.0402,0,0,-2.0364,-2.0364,0,0,0,0,0,0,0,0,-2.0504,-2.0502,-2.0474,-2.047,-2.0466,-2.0438,-2.046,-2.0445,-2.0404,-2.0427,-2.0399,-2.0397,-2.039,-2.0388,-2.0385,-2.04,-2.0398,-2.0364,-2.0365,-2.0365,-2.0365,0,0,0,0,0,0,0,-2.0505,-2.0503,-2.049,-2.0473,-2.0469,-2.0453,-2.0449,-2.0457,-2.0419,-2.0425,-2.042,-2.0416,-2.0387,-2.0385,-2.0384,-2.0398,-2.0364,-2.0365,-2.0365,-2.0365,-2.0443,-2.0444,0,0,0,0,0,0,-2.0512,-2.0505,-2.0492,-2.0489,-2.0481,-2.0455,-2.0449,-2.0449,-2.0419,-2.0412,-2.0418,-2.0413,-2.0385,-2.0383,-2.0382,-2.0425,-2.0365,-2.0365,-2.0365,-2.0441,-2.0443,-2.0445,0,0,0,0,0,0,-2.0512,-2.0511,-2.0493,-2.0496,-2.0492,-2.0456,-2.0457,-2.0449,-2.0447,-2.0414,-2.0407,-2.0422,-2.0384,-2.0382,-2.0397,-2.0423,-2.0365,-2.0365,-2.0438,-2.0441,-2.0444,-2.0511,0,0,0,0,0,0,-2.0513,-2.0512,-2.0525,-2.0496,-2.0492,-2.0509,-2.0458,-2.045,-2.0447,-2.0441,-2.0416,-2.041,-2.0382,-2.0397,-2.0397,-2.0422,-2.0365,-2.0436,-2.044,-2.0443,-2.0506,-2.0516,-2.0524,0,0,0,0,0,-2.0514,-2.0546,-2.0526,-2.0525,-2.0509,-2.051,-2.0508,-2.0475,-2.0449,-2.0463,-2.0442,-2.0411,-2.042,-2.0399,-2.0399,-2.0424,-2.0434,-2.0439,-2.0443,-2.0502,-2.0514,-2.0524,0,0,0,0,0,0,-2.0579,-2.0541,-2.0519,-2.0543,-2.053,-2.0499,-2.0516,-2.0488,-2.0483,-2.0477,-2.0437,-2.0432,-2.0453,-2.044,-2.0418,-2.046,-2.0422,-2.0427,-2.0467,-2.0478,-2.0487,-2.049,-2.0366,0,0,0,0,0,-2.0596,-2.06,-2.0567,-2.0591,-2.0586,-2.0552,-2.0552,-2.0527,-2.0513,-2.0507,-2.0487,-2.0475,-2.0474,-2.0475,-2.0474,-2.0504,-2.0498,-2.0521,-2.053,-2.0537,-2.0542,-2.0557,-2.0568,-2.0459,-2.0459,-2.0459,0,0,-2.0632,-2.0612,-2.0617,-2.0604,-2.0591,-2.0597,-2.0548,-2.0556,-2.056,-2.0508,-2.0522,-2.0507,-2.049,-2.0514,-2.0523,-2.0503,-2.057,-2.0543,-2.0549,-2.0549,-2.0563,-2.0573,-2.0582,-2.0462,-2.0462,-2.0461,0,0,-2.07,-2.0684,-2.0703,-2.0691,-2.0672,-2.065,-2.0654,-2.0628,-2.0616,-2.0628,-2.059,-2.0594,-2.0595,-2.0585,-2.058,-2.0644,-2.0615,-2.0645,-2.0691,-2.0706,-2.0715,-2.0722,-2.0746,-2.0755,-2.0649,-2.0649,-2.0649,0,-2.0746,-2.0753,-2.0716,-2.0727,-2.0722,-2.0676,-2.0695,-2.0685,-2.0667,-2.0665,-2.0644,-2.0644,-2.0629,-2.065,-2.0666,-2.0663,-2.0667,-2.0648,-2.0717,-2.0724,-2.073,-2.0752,-2.0761,-2.0653,-2.0653,-2.0652,-2.0652,0,-2.0811,-2.0817,-2.0834,-2.0817,-2.0815,-2.083,-2.0796,-2.0798,-2.0774,-2.0754,-2.0768,-2.0749,-2.0742,-2.0745,-2.0722,-2.0763,-2.0751,-2.0724,-2.0686,-2.0745,-2.0765,-2.0773,-2.0658,-2.0657,-2.0656,-2.0655,0,0,-2.092,-2.0883,-2.089,-2.0882,-2.0858,-2.0861,-2.0874,-2.0867,-2.087,-2.0859,-2.087,-2.0871,-2.0846,-2.084,-2.0815,-2.0829,-2.0882,-2.08,-2.0799,-2.0816,-2.0927,-2.0948,-2.0959,-2.0862,-2.0864,-2.0865,-2.0928,0,-2.0983,-2.1002,-2.097,-2.0997,-2.1002,-2.0957,-2.0968,-2.0955,-2.0937,-2.0939,-2.0918,-2.092,-2.0886,-2.0882,-2.0894,-2.0873,-2.0904,-2.0868,-2.0872,-2.0873,-2.0879,-2.0969,-2.0992,-2.1052,-2.0936,-2.0937,-2.0938,0,-2.1059,-2.1052,-2.108,-2.1054,-2.1055,-2.1065,-2.1057,-2.1059,-2.1043,-2.1029,-2.1023,-2.0993,-2.1005,-2.0967,-2.0983,-2.0959,-2.0959,-2.0949,-2.0951,-2.095,-2.091,-2.0972,-2.107,-2.108,-2.095,-2.0949,-2.0948,0,-2.1137,-2.1133,-2.115,-2.1144,-2.1115,-2.1123,-2.1111,-2.1094,-2.1092,-2.1085,-2.1083,-2.1078,-2.1075,-2.1072,-2.1042,-2.1017,-2.1061,-2.1021,-2.105,-2.1051,-2.1062,-2.1062,-2.1163,-2.1061,-2.1061,-2.1061,-2.1061,0,-2.1211,-2.123,-2.1184,-2.1194,-2.1214,-2.1177,-2.1198,-2.1181,-2.1166,-2.1173,-2.1134,-2.1141,-2.1101,-2.1104,-2.1081,-2.1097,-2.1096,-2.1085,-2.1079,-2.1089,-2.1091,-2.1089,-2.1085,-2.1063,-2.1063,-2.1062,-2.1062,0,-2.1301,-2.1271,-2.1286,-2.1256,-2.1249,-2.1266,-2.1241,-2.1249,-2.1228,-2.1237,-2.1237,-2.1204,-2.1206,-2.1175,-2.1171,-2.1155,-2.1183,-2.1169,-2.1188,-2.1184,-2.1215,-2.1213,-2.1319,-2.1332,-2.1221,-2.1222,-2.1223,0,-2.1351,-2.1364,-2.1336,-2.1338,-2.1328,-2.133,-2.1328,-2.1292,-2.1292,-2.1275,-2.1286,-2.1284,-2.1281,-2.1285,-2.1262,-2.1258,-2.1244,-2.1282,-2.1243,-2.1253,-2.1246,-2.1245,-2.1247,-2.129,-2.1291,-2.1292,-2.1293,0,-2.1443,-2.1427,-2.1425,-2.1419,-2.1417,-2.141,-2.1401,-2.1404,-2.1365,-2.1367,-2.1368,-2.1365,-2.136,-2.1359,-2.1351,-2.134,-2.1311,-2.1305,-2.1312,-2.1323,-2.1334,-2.1329,-2.1211,-2.1303,-2.1302,-2.1302,-2.1301,-2.1301,-2.1514,-2.1524,-2.1506,-2.1506,-2.1495,-2.1487,-2.1494,-2.1473,-2.1473,-2.1466,-2.1445,-2.145,-2.1434,-2.142,-2.1412,-2.1415,-2.1397,-2.1406,-2.1409,-2.1412,-2.1418,-2.1333,-2.1413,-2.1413,-2.1413,-2.1412,-2.1412,0,-2.1605,-2.1591,-2.1591,-2.1579,-2.1579,-2.155,-2.1539,-2.1541,-2.1545,-2.1533,-2.153,-2.1531,-2.153,-2.1507,-2.1503,-2.151,-2.1497,-2.1511,-2.151,-2.1508,-2.1434,-2.1429,-2.1522,-2.1522,-2.1521,-2.1521,-2.1521,-2.1521,-2.1652,-2.1667,-2.165,-2.166,-2.1646,-2.165,-2.1646,-2.1639,-2.1629,-2.1632,-2.1631,-2.1615,-2.1598,-2.1593,-2.1591,-2.1584,-2.1584,-2.1603,-2.1592,-2.1524,-2.1513,-2.1503,-2.1498,-2.1603,-2.1603,-2.1665,-2.1666,-2.1666]},{"header":{"parameterUnit":"m.s-1","parameterCategory":1,"la1":30.2991,"la2":30.254,"lo1":-89.0895,"lo2":-89.0444,"dy":0.0017,"dx":0.0017,"nx":28,"ny":28,"refTime":"2024-08-04T21:00:00:Z","depth":0,"parameterNumber":3,"parameterNumberName":"V-component_of_WINDS"},"data":[0,0,0,0,0,0,0,0,0,0,0,0,0,0,0,0,0,0,0,0,0,0,0,0,0,0,0,0,0,0,0,0,0,0,0,0,0,0,0,0,0,0,0,0,0,0,0,0,0,0,0,0,0,0,0,0,0,0,-3.0806,-3.0806,0,-3.0837,-3.0837,-3.0837,-3.081,-3.0808,-3.0807,-3.0806,-3.0835,-3.0837,-3.0839,0,0,0,0,0,0,0,0,0,0,0,0,0,-3.072,-3.0722,-3.0806,-3.0806,-3.0807,-3.0837,-3.0837,-3.0838,-3.081,-3.0808,-3.0807,-3.0806,-3.0834,-3.0837,-3.0839,0,0,0,0,0,0,0,0,0,0,0,0,0,-3.0755,-3.0722,-3.0806,-3.0797,-3.0796,-3.0837,-3.0837,-3.0838,-3.081,-3.0808,-3.0807,-3.0805,-3.0834,-3.0836,-3.0839,-3.089,0,0,-3.0847,-3.0849,0,0,0,0,0,0,0,0,-3.0753,-3.0758,-3.0797,-3.0797,-3.0797,-3.0818,-3.0817,-3.0855,-3.0811,-3.0805,-3.0806,-3.0804,-3.083,-3.0833,-3.0843,-3.0891,-3.0892,-3.0848,-3.0849,-3.085,-3.0851,0,0,0,0,0,0,0,-3.075,-3.0756,-3.0818,-3.0798,-3.0798,-3.079,-3.0793,-3.0824,-3.0826,-3.0805,-3.0803,-3.0807,-3.083,-3.084,-3.0843,-3.0893,-3.0848,-3.085,-3.0852,-3.0853,-3.0984,-3.0986,0,0,0,0,0,0,-3.0749,-3.0755,-3.0817,-3.0819,-3.077,-3.0793,-3.0796,-3.0813,-3.0826,-3.0827,-3.0809,-3.0806,-3.0836,-3.084,-3.0844,-3.0905,-3.085,-3.0853,-3.0855,-3.0982,-3.0985,-3.0987,0,0,0,0,0,0,-3.0748,-3.0755,-3.0816,-3.0786,-3.0793,-3.0796,-3.0815,-3.0814,-3.0824,-3.0829,-3.0829,-3.0819,-3.0835,-3.084,-3.0879,-3.0906,-3.0854,-3.0857,-3.098,-3.0983,-3.0986,-3.1027,0,0,0,0,0,0,-3.0745,-3.0755,-3.0775,-3.0787,-3.0795,-3.0851,-3.0816,-3.0816,-3.083,-3.0826,-3.0839,-3.0839,-3.0834,-3.0875,-3.0882,-3.0908,-3.0859,-3.0978,-3.0981,-3.0985,-3.1023,-3.103,-3.1037,0,0,0,0,0,-3.0742,-3.0784,-3.0776,-3.0784,-3.082,-3.0853,-3.0857,-3.0852,-3.0832,-3.0851,-3.0854,-3.0839,-3.0901,-3.0879,-3.0886,-3.0914,-3.0976,-3.098,-3.0985,-3.102,-3.1029,-3.1037,0,0,0,0,0,0,-3.0774,-3.0786,-3.0776,-3.0824,-3.0838,-3.0848,-3.0873,-3.0861,-3.088,-3.0876,-3.0867,-3.087,-3.0912,-3.0916,-3.0892,-3.0964,-3.0935,-3.0941,-3.096,-3.0969,-3.0975,-3.0974,-3.0861,0,0,0,0,0,-3.0786,-3.0813,-3.0821,-3.0862,-3.0869,-3.087,-3.0884,-3.0878,-3.0892,-3.0897,-3.0903,-3.0916,-3.0938,-3.0953,-3.0974,-3.1023,-3.1026,-3.1046,-3.1053,-3.1058,-3.1064,-3.1091,-3.11,-3.1,-3.1,-3.1,0,0,-3.0812,-3.0822,-3.0839,-3.0868,-3.0878,-3.0905,-3.0875,-3.0904,-3.0924,-3.0901,-3.0939,-3.0943,-3.0957,-3.1001,-3.1021,-3.1007,-3.1092,-3.1064,-3.1068,-3.1071,-3.1096,-3.1105,-3.1114,-3.1003,-3.1003,-3.1002,0,0,-3.0874,-3.0883,-3.0919,-3.093,-3.0946,-3.0946,-3.0955,-3.0967,-3.097,-3.1007,-3.0991,-3.1013,-3.1052,-3.1063,-3.1074,-3.114,-3.1126,-3.1146,-3.1183,-3.121,-3.1217,-3.1224,-3.1249,-3.1257,-3.1152,-3.1152,-3.1152,0,-3.0904,-3.0945,-3.0938,-3.097,-3.0983,-3.0965,-3.1001,-3.1011,-3.1033,-3.1042,-3.1026,-3.1075,-3.1083,-3.113,-3.1146,-3.1155,-3.1164,-3.1145,-3.1217,-3.1224,-3.123,-3.1253,-3.1262,-3.1154,-3.1154,-3.1154,-3.1153,0,-3.0981,-3.101,-3.1036,-3.1059,-3.1075,-3.1109,-3.1107,-3.1124,-3.1117,-3.1118,-3.1157,-3.1166,-3.1189,-3.1199,-3.1192,-3.1245,-3.1236,-3.1218,-3.1189,-3.1242,-3.1264,-3.1273,-3.1158,-3.1157,-3.1156,-3.1155,0,0,-3.1064,-3.1083,-3.1093,-3.1104,-3.112,-3.1142,-3.1174,-3.1197,-3.1212,-3.1227,-3.1254,-3.1288,-3.1272,-3.1284,-3.1278,-3.1301,-3.1353,-3.1281,-3.1281,-3.1295,-3.1413,-3.1427,-3.1437,-3.1344,-3.1346,-3.1347,-3.1412,0,-3.1126,-3.1184,-3.118,-3.1233,-3.126,-3.1243,-3.1271,-3.1283,-3.1286,-3.1307,-3.1309,-3.1334,-3.1311,-3.1318,-3.134,-3.1343,-3.1377,-3.1337,-3.1369,-3.137,-3.1367,-3.1448,-3.1463,-3.1524,-3.1421,-3.1422,-3.1423,0,-3.1208,-3.1228,-3.1285,-3.1298,-3.1309,-3.1334,-3.1356,-3.1377,-3.1391,-3.1391,-3.1404,-3.1394,-3.1426,-3.1396,-3.144,-3.1413,-3.1425,-3.1428,-3.143,-3.1434,-3.1401,-3.1455,-3.1544,-3.1553,-3.1436,-3.1435,-3.1434,0,-3.1264,-3.1304,-3.1344,-3.1353,-3.1369,-3.1388,-3.1395,-3.1407,-3.1422,-3.144,-3.1449,-3.147,-3.1482,-3.1498,-3.1494,-3.1473,-3.1539,-3.1508,-3.154,-3.154,-3.1556,-3.1555,-3.1649,-3.1562,-3.1562,-3.1561,-3.1561,0,-3.1335,-3.1371,-3.137,-3.1394,-3.1434,-3.1428,-3.1466,-3.1471,-3.1482,-3.1507,-3.1492,-3.1516,-3.1508,-3.1531,-3.1527,-3.1564,-3.1569,-3.157,-3.1569,-3.1572,-3.1572,-3.1581,-3.1577,-3.1564,-3.1563,-3.1563,-3.1562,0,-3.1405,-3.1405,-3.1448,-3.146,-3.1464,-3.1492,-3.1502,-3.1525,-3.1526,-3.1557,-3.1564,-3.1565,-3.1591,-3.1589,-3.1617,-3.1615,-3.1661,-3.1654,-3.1657,-3.1656,-3.1688,-3.1686,-3.1791,-3.1805,-3.1709,-3.1709,-3.171,0,-3.1451,-3.1479,-3.1494,-3.151,-3.1519,-3.1545,-3.156,-3.1555,-3.1571,-3.1589,-3.161,-3.1634,-3.1654,-3.1696,-3.1699,-3.1721,-3.1715,-3.1751,-3.1718,-3.1721,-3.1717,-3.1716,-3.1719,-3.1757,-3.1758,-3.1759,-3.176,0,-3.1534,-3.1533,-3.1556,-3.1579,-3.1598,-3.1616,-3.1632,-3.1646,-3.1642,-3.1661,-3.1688,-3.1703,-3.1733,-3.1758,-3.1778,-3.1785,-3.1772,-3.177,-3.1779,-3.1783,-3.1784,-3.1785,-3.1676,-3.1768,-3.1767,-3.1767,-3.1766,-3.1766,-3.1594,-3.1618,-3.1633,-3.1659,-3.1671,-3.1686,-3.1709,-3.1713,-3.1736,-3.1761,-3.1755,-3.1786,-3.1799,-3.1826,-3.1834,-3.1857,-3.1844,-3.1856,-3.186,-3.1863,-3.1868,-3.1779,-3.1861,-3.186,-3.186,-3.186,-3.186,0,-3.1676,-3.1685,-3.171,-3.1734,-3.1754,-3.1741,-3.1758,-3.1776,-3.1804,-3.1817,-3.1837,-3.1868,-3.1892,-3.1897,-3.192,-3.1938,-3.1933,-3.1944,-3.1943,-3.1945,-3.1877,-3.1868,-3.1948,-3.1948,-3.1948,-3.1948,-3.1948,-3.1948,-3.1722,-3.1762,-3.1763,-3.1809,-3.1817,-3.1848,-3.1859,-3.1873,-3.1884,-3.192,-3.194,-3.1944,-3.1954,-3.1977,-3.1999,-3.1999,-3.2009,-3.2023,-3.2021,-3.1958,-3.195,-3.1941,-3.1933,-3.2025,-3.2025,-3.2087,-3.2088,-3.2088]}]]